User: anonymous   Login
Location: Myra
(43.4160°N, 88.0960°W)
Time: 04:22:27
(UTC-06:00)
Language:

SL-8 R/B - Orbit

View from above orbital plane
View from above orbital plane
View from above satellite
View from above satellite

Ground track
Ground track

The orbit data is extracted from the following two-line orbital elements,

1 33066U 08031G   15025.87802895  .00000115  00000-0  52370-4 0    12
2 33066 048.4417 234.2241 0007323 024.8277 058.4689 14.69079510354331
Epoch (UTC): 25 January 2015 21:04:21
Eccentricity: 0.0007323
inclination: 48.4417°
perigee height: 659 km
apogee height: 669 km
right ascension of ascending node: 234.2241°
argument of perigee: 24.8277°
revolutions per day: 14.69079510
mean anomaly at epoch: 58.4689°
orbit number at epoch: 35433

The dashed part of the orbit path shows where the satellite is in the earth's shadow,  

DLR